SCP
0 0 0 0 0 0 0 0 0 0 0 0 0 0 0 0 0 0 0 0 0 0 0 0 0 0 0 0 0 0 0 0 0 0 0 0 0 0 0 0 0 0 0 0 0 0 0 0 0 0 0 0 0 0
0 0 0 0 0 0 0 0 0 0 0 0 0 0 0 0 0 0 0 0 0 0 0 0 0 0 0 0 0 0 0 0 0 0 0 0 0 0 0 0 0 0 0 0 0 0 0 0 0 0 0 0 0 0
0 0 0 0 0 0 0 0 0 0 0 0 0 0 0 0 0 0 0 0 0 0 0 0 0 0 0 0 0 0 0 0 0 0 0 0 0 0 0 0 0 0 0 0 0 0 0 0 0 0 0 0 0 0
0 0 0 0 0 0 0 0 0 0 0 0 0 0 0 0 0 0 0 0 0 0 0 0 0 0 0 0 0 0 0 0 0 0 0 0 0 0 0 0 0 0 0 0 0 0 0 0 0 0 0 0 0 0
0 0 0 0 0 0 0 0 0 0 0 0 0 0 0 0 0 0 0 0 0 0 0 0 0 0 0 0 0 0 0 0 0 0 0 0 0 0 0 0 0 0 0 0 0 0 -0 0 0 0 0 0 0 0
0 0 0 0 0 0 0 0 0 0 0 0 0 0 0 0 0 0 0 0 0 0 0 0 0 0 0 0 0 0 0 0 0 0 0 0 0 0 0 0 0 0 0 0 0 0 0 0 0 0 0 0 0 0
0 0 0 0 0 0 0 0 0 0 0 0 0 0 0 0 0 0 0 0 0 0 0 0 0 0 0 0 0 0 0 0 0 0 0 0 0 0 0 0 0 0 0 0 0 0 0 0 0 0 0 0 0 0
0 0 0 0 0 0 0 0 0 0 0 0 0 0 0 0 0 0 0 0 0 0 0 0 0 0 0 0 0 0 0 0 0 0 0 0 0 0 0 0 0 0 0 0 0 0 0 0 0 0 0 0 0 0
0 0 0 0 0 0 0 0 0 0 0 0 0 0 0 0 0 0 0 0 0 0 0 0 0 0 0 0 0 0 0 0 0 0 0 0 0 0 0 0 0 0 0 0 0 0 0 0 0 0 0 0 0 0
0 0 0 0 0 0 0 0 0 0 0 0 0 0 0 0 0 0 0 0 0 0 0 0 0 0 0 0 0 0 0 0 0 0 0 0 0 0 0 0 0 0 0 0 0 0 0 0 0 0 0 0 0 0
0 0 0 0 0 0 0 0 0 0 0 0 0 0 0 0 0 0 0 0 0 0 0 0 0 0 0 0 0 0 0 0 0 0 0 0 0 0 0 0 0 0 0 0 0 0 0 0 0 0 0 0 0 0
0 0 0 0 0 0 0 0 0 0 0 0 0 0 0 0 0 0 0 0 0 0 0 0 0 0 0 0 0 0 0 0 0 0 0 0 0 0 0 0 0 0 0 0 0 0 0 0 0 0 0 0 0 0
0 0 0 0 0 0 0 0 0 0 0 0 0 0 0 0 0 0 0 0 0 0 0 0 0 0 0 0 0 0 0 0 0 0 0 0 0 0 0 0 0 0 0 0 0 0 0 0 0 0 0 0 0 0
0 0 0 0 0 0 0 0 0 0 0 0 0 0 0 0 0 0 0 0 0 0 0 0 0 0 0 0 0 0 0 0 0 0 0 0 0 0 0 0 0 0 0 0 0 0 0 0 0 0 -0 0 0 0
0 0 0 0 0 0 0 0 0 0 0 0 0 0 0 0 0 0 0 0 0 0 0 0 0 0 0 0 0 0 0 0 0 0 0 0 0 0 -0 0 -0 0 0 0 0 0 0 0 0 0 0 0 0 0
0 0 0 0 0 0 0 0 0 0 0 0 0 0 0 0 0 0 0 0 0 0 0 0 0 0 0 0 0 0 0 0 0 0 0 0 0 0 0 -0 -0 0 0 0 -0 -0 -0 0 0 0 0 0 0 0
0 0 0 0 0 0 0 0 0 0 0 0 0 0 0 0 0 0 0 0 0 0 0 0 0 0 0 0 0 0 0 0 0 0 0 0 0 0 -0 -0 -0 0 0 0 -0 -0 0 0 0 0 0 0 0 0
0 0 0 0 0 0 0 0 0 0 0 0 0 0 0 0 0 0 0 0 0 0 0 0 0 0 0 0 0 0 0 0 0 0 0 -0 -0 -0 -0 -0 -0 0 0 0 0 0 0 0 0 0 0 0 0 0
0 0 -0 0 0 0 0 0 0 0 0 0 0 0 0 0 0 0 0 0 0 0 0 0 0 0 0 0 0 0 0 0 0 0 0 -0 -0 -0 -0 0 0 0 0 0 0 0 0 0 0 0 0 0 0 0
-0 -0 0 0 0 0 0 0 0 0 0 0 0 0 0 0 0 0 0 0 0 0 0 0 0 0 0 0 0 0 0 0 0 0 -0 -0 0 0 0 0 0 0 0 0 0 0 0 0 0 0 0 0 0 0
0 0 0 0 0 0 0 0 0 0 0 0 0 0 0 0 0 0 0 0 -0 -0 0 0 0 0 0 0 0 -0 -0 0 0 -0 -0 -0 0 0 0 0 0 0 0 0 0 0 0 0 0 0 0 0 0 0
0 0 0 0 0 0 0 0 0 0 0 0 0 0 0 0 0 0 0 -0 -0 0 0 0 0 0 0 -0 -0 -0 -0 -0 -0 0 0 0 0 0 0 0 0 0 0 0 0 0 0 0 0 0 0 0 0 0
0 0 0 0 0 0 0 0 0 0 0 0 0 0 0 0 0 -0 -0 0 -0 0 0 0 0 0 -0 -0 -0 -0 -0 -0 -0 0 0 0 0 -0 0 0 0 0 0 0 0 0 0 0 0 0 0 0 0 0
0 0 0 0 0 0 0 0 0 0 0 0 0 0 0 -0 -0 -0 0 -0 0 -0 -0 -0 0 0 -0 -0 0 0 -0 0 0 0 0 0 0 0 0 0 0 0 0 0 0 0 0 0 0 0 0 0 0 0
0 0 0 0 0 0 0 0 0 0 0 0 0 -0 -0 -0 -0 0 -0 -0 0 0 0 0 -0 0 0 0 0 0 0 0 0 0 0 -0 -0 0 0 0 0 0 0 0 0 0 0 0 0 0 0 0 0 0
0 0 0 0 0 0 0 0 0 0 0 0 -0 -0 -0 -0 0 0 0 0 0 0 0 0 0 0 0 0 0 0 0 0 0 0 0 0 0 0 -0 0 0 0 0 0 0 0 -0 0 0 0 -0 0 0 -0
0 0 0 0 0 0 0 0 0 0 0 -0 -0 -0 0 0 0 0 0 0 0 0 0 0 0 0 0 0 0 0 0 0 0 0 0 0 0 0 0 -0 -0 0 0 0 0 0 0 0 0 0 0 0 -0 -0
0 0 0 0 0 0 0 0 0 0 -0 -0 -0 0 0 0 0 0 0 0 0 0 0 0 0 0 0 0 0 0 0 0 0 -0 -0 0 0 0 0 0 -0 -0 -0 -0 -0 -0 0 0 0 -0 -0 0 0 0
0 0 0 0 0 0 0 0 0 -0 -0 -0 0 0 0 0 0 0 0 0 0 0 0 0 0 0 0 0 0 0 0 0 0 0 0 0 -0 0 0 -0 -0 -0 -0 -0 -0 -0 -0 0 0 0 0 0 0 0
0 -0 0 0 0 0 0 0 -0 -0 -0 -0 0 0 0 0 0 0 0 0 0 0 0 0 0 0 0 0 0 0 0 0 0 -0 0 -0 -0 -0 -0 -0 -0 -0 0 0 -0 0 0 0 0 -0 0 0 0 0
0 0 0 0 0 0 0 -0 -0 -0 0 0 0 0 0 0 0 0 0 0 0 0 0 0 0 0 0 0 0 0 0 0 0 -0 -0 -0 -0 -0 -0 -0 -0 -0 -0 -0 0 0 0 0 0 0 0 0 -0 -0
0 0 0 0 0 0 0 -0 0 0 0 0 0 0 0 0 0 0 0 0 0 0 0 0 0 0 0 0 0 0 0 0 0 -0 -0 -0 -0 -0 -0 0 -0 0 0 0 0 0 0 0 0 -0 -0 -0 -0 -0
0 0 0 0 0 0 0 0 0 0 0 0 0 0 0 0 0 0 0 0 0 0 0 0 0 0 0 0 0 0 0 0 0 0 0 0 0 0 0 0 0 0 0 0 0 0 -0 -0 -0 0 0 0 -0 0
Wind_Speed_500mb
40 39 39 35 31 27 29 27 26 26 26 25 27 30 29 29 28 27 24 22 20 12 41 26 17 17 13 9 5 10 15 4 6 6 2 4 4 5 4 7 6 6 3 6 5 5 9 17 4 6 6 5 17 25
44 43 44 42 38 34 31 29 26 26 27 26 27 29 28 30 29 27 25 30 30 24 36 58 60 58 55 38 19 7 6 6 6 6 2 1 4 2 5 6 2 5 11 6 13 10 9 20 18 23 17 22 25 38
51 48 46 45 47 41 34 31 27 27 27 26 27 28 30 31 32 31 32 33 37 20 35 18 4 6 4 10 20 20 10 11 7 8 8 4 8 6 6 10 6 7 8 6 3 7 9 16 26 21 24 33 39 38
62 57 51 48 46 46 36 32 29 27 27 27 27 28 30 31 32 34 33 31 23 13 8 10 3 14 38 34 31 42 49 36 26 22 11 5 5 14 7 8 7 8 9 5 9 15 19 18 16 18 28 48 33 35
68 63 58 54 51 47 42 38 32 31 30 29 29 28 30 31 31 31 30 19 7 10 9 27 48 10 21 16 15 24 41 54 45 14 8 8 11 5 7 2 9 17 13 9 12 18 5 20 23 39 44 39 37 48
72 69 63 62 57 52 49 42 36 34 35 32 32 30 32 33 29 26 7 4 3 9 14 9 15 13 15 11 15 11 3 27 32 14 14 17 23 21 9 9 16 41 60 62 37 30 24 40 44 49 38 34 46 47
77 75 71 67 65 60 56 52 45 41 36 34 35 34 33 33 27 11 11 11 12 10 8 16 18 8 22 10 10 6 15 16 25 15 15 22 23 30 6 14 11 37 45 44 41 35 42 56 44 48 47 51 48 45
76 75 76 76 67 68 65 59 57 48 44 38 38 38 35 31 30 15 8 11 15 15 8 5 9 20 16 10 13 18 10 13 18 18 9 12 15 20 15 15 57 74 63 61 77 70 64 64 55 38 41 34 34 39
78 75 73 77 74 72 69 64 60 56 47 41 39 37 28 22 9 8 9 9 13 12 6 6 4 8 16 6 10 11 10 6 12 5 9 9 7 10 15 36 47 68 81 81 84 69 57 32 33 43 36 37 36 38
74 77 73 69 74 68 63 69 62 58 49 44 32 10 9 7 11 6 4 6 7 10 11 10 10 7 7 5 7 8 7 7 6 10 10 7 14 30 21 28 39 44 49 53 47 49 41 32 33 33 33 34 37 40
67 71 72 68 65 69 70 56 52 55 52 36 21 13 13 14 7 6 5 6 8 6 14 15 27 8 11 7 7 9 5 5 6 9 6 6 7 8 34 37 29 22 8 18 24 29 27 23 25 33 37 37 38 39
60 66 64 60 51 48 44 44 47 59 33 24 19 19 16 10 8 4 6 4 8 9 13 13 15 25 12 12 7 7 5 5 13 9 4 5 7 21 31 39 37 24 15 17 18 18 15 16 22 33 40 45 41 38
53 60 57 54 46 40 35 42 48 57 36 34 10 12 11 9 3 12 13 8 7 11 17 17 7 11 9 11 11 4 8 11 17 6 7 7 8 26 35 45 42 35 34 26 26 25 20 23 24 31 45 47 41 38
50 54 56 56 41 45 46 40 54 52 34 11 18 12 12 10 11 12 10 9 18 12 15 12 8 12 10 5 6 6 9 5 7 7 9 5 22 39 37 54 55 51 49 45 38 32 27 30 30 40 48 39 38 34
43 45 45 49 47 40 47 48 62 64 16 14 14 12 16 22 17 14 26 22 18 8 14 16 12 8 4 5 7 5 8 11 11 10 7 25 2 21 50 62 71 71 67 52 45 38 32 31 34 50 43 36 36 29
31 32 44 42 39 42 47 62 71 33 14 14 12 8 14 5 14 36 36 30 20 26 14 9 4 3 10 7 8 15 9 14 7 6 9 7 26 33 41 64 77 75 67 57 47 40 33 34 40 43 38 36 29 24
32 36 34 36 46 50 68 65 42 14 15 11 14 27 28 18 18 12 19 28 23 13 6 5 8 17 3 8 8 9 11 8 18 10 18 38 58 79 93 89 84 76 74 55 51 39 40 37 38 41 37 32 30 23
41 43 45 56 66 79 57 20 21 16 14 24 11 19 34 29 17 21 27 33 25 13 10 11 10 8 13 12 17 14 25 38 46 53 68 87 95 97 86 81 77 67 59 52 44 35 33 37 36 32 32 36 28 22
52 52 56 79 93 51 15 19 13 11 23 13 22 31 33 33 43 44 47 44 40 38 12 10 12 10 24 33 42 67 69 60 62 78 75 78 73 73 75 59 53 49 39 32 25 28 31 29 26 30 35 37 32 32
44 62 85 91 62 14 11 10 17 9 9 7 13 17 17 21 32 36 32 34 37 17 17 11 19 51 57 76 82 84 85 78 68 72 77 76 57 40 36 35 28 23 27 26 29 28 25 19 28 32 33 35 38 47
95 98 82 42 25 11 8 13 13 8 6 11 11 14 14 21 28 35 40 41 29 17 9 45 68 80 87 86 85 92 109 94 80 73 84 89 66 58 56 35 24 23 27 24 21 20 21 29 31 31 36 42 49 58
84 81 43 22 8 5 5 11 6 4 7 9 11 10 12 8 10 10 11 20 15 31 49 63 67 66 69 82 93 106 125 120 102 81 81 83 72 63 55 43 36 29 27 25 25 22 26 30 33 37 44 53 58 55
73 52 17 8 6 8 5 11 7 6 3 6 4 4 6 9 7 5 9 14 20 39 42 45 50 64 82 93 96 93 87 83 79 70 56 53 48 42 35 36 29 26 28 28 24 28 42 44 48 55 56 56 55 55
44 11 11 12 8 7 8 7 8 6 6 4 2 7 7 9 6 7 7 10 20 22 29 46 69 82 82 72 69 70 70 57 14 7 8 27 44 40 34 36 34 33 33 35 40 47 47 53 50 51 53 59 61 57
9 9 9 4 5 5 6 6 8 4 6 6 5 7 7 6 4 6 6 10 19 32 52 75 77 57 56 62 60 60 59 50 34 36 36 54 63 52 43 40 42 35 41 52 56 58 54 50 48 55 61 61 55 50
4 8 10 13 9 9 8 6 11 13 7 6 9 8 5 3 5 9 6 12 29 57 68 69 72 68 47 38 44 42 36 37 44 53 47 57 64 69 69 57 47 40 42 50 63 60 55 59 62 62 54 47 50 50
5 7 8 11 7 6 6 12 6 2 4 5 5 4 3 6 7 7 11 37 70 86 87 70 43 31 37 41 34 36 38 41 46 51 54 57 63 61 57 65 60 53 50 52 48 53 60 59 56 54 53 49 47 45
2 6 8 11 11 12 4 3 2 5 6 7 2 4 5 5 6 9 48 83 86 79 60 24 26 30 36 35 37 45 51 53 53 52 48 45 44 50 57 59 55 51 47 44 51 49 49 52 54 55 55 51 45 44
5 6 8 3 7 10 11 11 8 8 6 6 3 5 8 12 45 76 80 72 60 45 24 24 21 27 36 32 32 37 44 44 59 70 72 64 60 61 56 50 50 47 47 46 44 41 45 54 56 57 50 45 45 41
4 13 7 6 6 8 12 18 12 16 16 21 27 35 50 64 66 59 49 34 34 25 26 22 19 33 40 39 38 42 42 43 47 58 66 65 61 53 51 53 53 49 45 45 47 46 52 56 52 44 40 37 34 32
3 8 7 9 7 9 15 20 27 33 39 46 48 46 48 45 51 15 24 29 26 20 23 19 20 31 37 40 38 42 44 44 44 46 52 56 56 52 47 45 45 44 39 41 45 50 56 51 43 36 28 21 22 24
7 11 7 5 9 19 23 28 24 23 24 21 15 12 9 8 10 13 18 22 19 15 14 13 19 29 33 29 35 42 41 37 35 36 39 39 38 34 31 30 33 34 40 46 55 50 43 37 28 21 17 20 20 21
8 10 7 6 6 6 5 5 5 7 8 6 6 7 8 4 7 7 12 14 9 9 10 12 22 18 22 28 36 39 39 38 36 35 37 37 38 40 41 40 43 47 47 46 44 34 29 22 11 16 28 29 22 21
Wind_Direction_500mb
276 285 293 298 299 296 302 315 320 326 330 332 337 344 346 353 356 350 338 333 335 284 288 270 250 222 235 221 176 321 344 296 351 57 148 261 216 268 305 256 197 195 209 219 125 263 240 353 27 185 268 326 330 356
273 274 280 287 293 298 293 294 304 313 321 324 328 333 337 342 347 346 340 328 320 288 276 287 283 273 262 257 261 275 256 276 242 92 239 282 293 304 185 272 73 254 191 215 180 213 255 304 307 308 311 314 325 323
269 271 271 276 285 292 291 285 287 298 307 313 319 325 331 334 337 339 336 331 331 306 305 302 316 177 307 264 239 217 229 229 231 274 204 194 241 140 224 239 247 247 172 197 346 234 248 302 304 290 302 317 316 307
264 263 265 268 274 283 285 294 281 287 293 301 312 317 324 329 331 331 332 330 326 306 300 278 292 281 290 276 252 246 259 252 271 292 247 185 190 196 229 246 203 222 149 212 264 293 286 265 310 310 328 332 331 335
260 263 258 260 263 268 276 279 284 279 285 292 299 307 316 321 325 326 321 325 331 340 284 287 304 171 350 336 297 255 254 253 261 229 208 219 216 176 226 73 240 197 203 176 226 236 217 281 313 318 322 318 344 340
256 257 259 255 256 259 261 266 270 274 275 282 290 298 306 313 321 329 300 247 203 7 323 314 301 299 357 18 12 333 287 248 224 213 229 230 225 203 205 224 240 231 239 246 245 272 266 291 291 296 308 291 305 320
251 252 253 258 250 252 254 257 261 261 268 271 280 287 295 299 306 292 275 279 238 288 306 301 304 295 339 350 335 272 288 249 223 223 223 233 235 211 213 230 234 217 241 236 248 276 288 291 283 301 299 292 297 299
249 250 249 251 254 248 248 251 253 258 259 260 268 277 283 290 296 291 265 242 248 245 257 272 276 316 354 335 335 334 278 245 230 236 247 219 215 211 246 248 239 247 244 249 264 271 277 288 284 283 302 307 296 297
249 248 247 250 249 248 244 246 254 251 252 250 254 265 278 273 234 186 191 215 205 218 249 206 261 277 337 321 296 300 283 310 278 240 247 199 211 228 226 217 233 244 237 239 250 263 266 268 275 288 292 298 294 295
248 247 246 248 249 245 248 244 245 244 239 241 240 234 238 199 180 244 232 197 205 216 229 236 221 259 278 313 295 295 265 247 279 248 271 197 250 267 283 311 301 287 267 250 240 250 265 274 276 281 283 293 295 298
249 244 246 245 252 246 242 244 237 225 227 221 195 189 184 172 197 221 212 206 192 245 221 234 217 240 240 187 229 232 281 272 287 271 177 251 285 295 346 351 338 314 304 238 231 240 256 270 282 291 297 300 301 297
248 240 241 240 249 240 229 233 224 222 215 188 152 149 169 194 198 198 219 200 201 230 210 202 228 222 251 230 203 231 233 306 251 308 272 244 258 334 347 348 348 341 304 268 260 267 257 274 291 297 299 297 291 286
249 236 232 233 221 218 234 247 219 218 191 143 144 144 170 173 188 203 198 218 217 207 208 205 220 226 223 232 242 206 242 237 303 252 248 222 252 334 348 351 339 338 341 323 302 285 288 289 296 305 306 292 283 273
247 230 224 231 225 216 223 232 212 185 155 149 158 170 208 190 232 200 192 191 209 211 183 200 238 221 207 191 227 224 241 262 258 248 241 218 300 321 329 329 329 325 322 327 316 305 288 288 292 298 298 286 263 262
237 223 217 231 218 214 221 214 194 172 156 160 177 211 213 228 230 234 231 232 229 232 288 299 263 226 216 258 209 255 250 241 237 233 220 223 250 334 312 325 317 310 306 304 314 303 283 280 283 286 295 260 244 250
223 215 228 221 199 200 188 182 175 171 177 174 218 239 228 263 248 239 237 243 239 268 272 231 251 238 236 211 200 216 241 227 236 219 228 281 313 317 301 302 302 301 300 295 298 294 279 269 281 288 284 246 226 221
191 228 222 200 183 177 176 165 172 192 204 209 230 228 234 264 255 250 226 239 228 206 206 202 224 222 198 233 229 214 222 224 230 189 264 291 298 293 288 283 286 284 288 288 296 277 269 273 276 279 259 229 212 211
217 214 207 185 170 163 158 149 163 199 228 229 227 243 233 237 237 243 247 248 227 211 208 222 267 232 234 234 236 244 257 279 280 275 276 278 278 281 274 269 261 269 275 280 276 268 260 270 278 262 227 221 198 183
211 202 195 180 166 149 143 168 170 217 226 233 242 256 259 260 259 261 262 260 254 244 257 233 237 228 234 249 261 268 274 278 282 286 288 288 288 289 290 284 273 274 269 260 253 259 270 259 258 232 216 201 187 168
194 185 175 162 153 123 121 162 183 237 231 235 239 245 242 244 273 271 268 258 244 214 204 223 240 251 262 267 272 278 284 286 287 290 286 286 292 292 297 303 288 273 268 259 258 254 252 239 217 214 209 189 173 157
157 160 150 143 115 106 143 165 180 219 251 246 265 252 261 261 263 264 262 253 224 221 239 248 257 263 265 270 277 279 278 277 271 268 271 279 279 278 283 279 280 271 239 236 226 230 205 210 205 193 185 173 161 151
150 151 133 113 92 101 131 183 177 186 238 261 273 229 261 268 252 233 219 196 229 241 241 255 266 277 283 281 283 282 285 289 284 276 271 268 263 257 254 254 259 247 228 201 193 196 202 196 177 159 153 142 141 140
147 146 91 89 128 183 171 176 188 216 209 252 256 267 245 250 241 250 253 230 243 259 276 288 294 296 295 296 298 300 300 295 289 287 270 257 246 241 234 225 221 205 188 170 170 172 156 146 139 133 130 133 135 138
133 113 172 180 166 163 159 190 216 237 240 261 230 265 247 234 249 241 249 260 249 296 306 304 310 315 316 312 312 330 343 355 29 129 161 175 175 179 188 181 181 160 154 153 149 147 134 128 131 135 136 137 135 133
151 173 166 134 159 141 210 195 193 194 240 224 233 265 258 219 244 252 240 267 279 315 320 322 317 307 300 316 338 358 34 44 84 102 125 152 149 144 145 151 141 142 156 143 139 137 133 135 140 140 140 140 141 141
134 171 162 168 154 178 216 197 203 206 203 238 235 254 252 248 258 247 242 285 315 321 322 321 318 326 344 359 354 9 36 61 94 103 119 138 144 140 138 139 143 144 145 141 139 133 132 137 139 141 142 143 144 144
147 200 189 198 194 208 261 259 224 140 244 240 252 279 296 256 256 254 302 316 319 322 324 329 333 339 358 26 54 68 75 87 93 107 125 137 142 141 141 140 139 135 137 142 140 136 136 140 140 141 140 141 139 136
263 184 169 172 207 225 232 306 63 235 238 239 222 256 252 236 268 325 311 311 314 319 332 30 57 48 45 48 79 92 95 96 100 105 113 117 127 134 136 131 128 128 135 139 139 140 142 143 142 142 139 136 135 133
217 193 178 217 231 223 211 196 226 241 224 215 190 262 265 275 297 301 308 311 319 336 44 88 88 65 61 73 86 102 98 109 115 111 109 115 123 129 127 124 126 131 134 137 135 134 140 143 142 141 139 139 139 140
239 180 187 227 224 216 219 212 239 271 276 278 283 285 289 291 302 311 313 347 18 58 94 98 74 58 57 72 82 92 96 94 97 106 114 120 122 123 126 123 124 128 131 132 136 134 140 142 141 142 146 150 156 161
259 171 200 224 252 276 274 289 296 296 291 288 289 280 283 303 320 4 8 18 45 98 110 86 66 71 71 85 98 107 106 106 107 107 110 117 122 125 126 128 128 126 125 130 136 139 145 146 149 152 152 155 172 179
203 214 222 230 271 293 289 286 281 271 277 266 269 267 294 299 293 347 14 18 45 83 70 67 80 69 66 79 104 108 108 110 113 116 120 125 131 136 139 142 143 141 141 139 146 146 150 154 160 165 162 170 163 154
228 273 295 295 295 298 292 267 272 281 268 280 276 241 214 246 268 353 19 25 29 28 60 97 113 88 66 99 116 110 103 102 107 114 113 118 120 124 127 131 135 139 142 144 151 161 171 176 189 160 155 146 149 154
Wind_Speed_850mb
40 39 39 35 31 27 29 27 26 26 26 25 27 30 29 29 28 27 24 22 20 12 41 26 17 17 13 9 5 10 15 4 6 6 2 4 4 5 4 7 6 6 3 6 5 5 9 17 4 6 6 5 17 25
44 43 44 42 38 34 31 29 26 26 27 26 27 29 28 30 29 27 25 30 30 24 36 58 60 58 55 38 19 7 6 6 6 6 2 1 4 2 5 6 2 5 11 6 13 10 9 20 18 23 17 22 25 38
51 48 46 45 47 41 34 31 27 27 27 26 27 28 30 31 32 31 32 33 37 20 35 18 4 6 4 10 20 20 10 11 7 8 8 4 8 6 6 10 6 7 8 6 3 7 9 16 26 21 24 33 39 38
62 57 51 48 46 46 36 32 29 27 27 27 27 28 30 31 32 34 33 31 23 13 8 10 3 14 38 34 31 42 49 36 26 22 11 5 5 14 7 8 7 8 9 5 9 15 19 18 16 18 28 48 33 35
68 63 58 54 51 47 42 38 32 31 30 29 29 28 30 31 31 31 30 19 7 10 9 27 48 10 21 16 15 24 41 54 45 14 8 8 11 5 7 2 9 17 13 9 12 18 5 20 23 39 44 39 37 48
72 69 63 62 57 52 49 42 36 34 35 32 32 30 32 33 29 26 7 4 3 9 14 9 15 13 15 11 15 11 3 27 32 14 14 17 23 21 9 9 16 41 60 62 37 30 24 40 44 49 38 34 46 47
77 75 71 67 65 60 56 52 45 41 36 34 35 34 33 33 27 11 11 11 12 10 8 16 18 8 22 10 10 6 15 16 25 15 15 22 23 30 6 14 11 37 45 44 41 35 42 56 44 48 47 51 48 45
76 75 76 76 67 68 65 59 57 48 44 38 38 38 35 31 30 15 8 11 15 15 8 5 9 20 16 10 13 18 10 13 18 18 9 12 15 20 15 15 57 74 63 61 77 70 64 64 55 38 41 34 34 39
78 75 73 77 74 72 69 64 60 56 47 41 39 37 28 22 9 8 9 9 13 12 6 6 4 8 16 6 10 11 10 6 12 5 9 9 7 10 15 36 47 68 81 81 84 69 57 32 33 43 36 37 36 38
74 77 73 69 74 68 63 69 62 58 49 44 32 10 9 7 11 6 4 6 7 10 11 10 10 7 7 5 7 8 7 7 6 10 10 7 14 30 21 28 39 44 49 53 47 49 41 32 33 33 33 34 37 40
67 71 72 68 65 69 70 56 52 55 52 36 21 13 13 14 7 6 5 6 8 6 14 15 27 8 11 7 7 9 5 5 6 9 6 6 7 8 34 37 29 22 8 18 24 29 27 23 25 33 37 37 38 39
60 66 64 60 51 48 44 44 47 59 33 24 19 19 16 10 8 4 6 4 8 9 13 13 15 25 12 12 7 7 5 5 13 9 4 5 7 21 31 39 37 24 15 17 18 18 15 16 22 33 40 45 41 38
53 60 57 54 46 40 35 42 48 57 36 34 10 12 11 9 3 12 13 8 7 11 17 17 7 11 9 11 11 4 8 11 17 6 7 7 8 26 35 45 42 35 34 26 26 25 20 23 24 31 45 47 41 38
50 54 56 56 41 45 46 40 54 52 34 11 18 12 12 10 11 12 10 9 18 12 15 12 8 12 10 5 6 6 9 5 7 7 9 5 22 39 37 54 55 51 49 45 38 32 27 30 30 40 48 39 38 34
43 45 45 49 47 40 47 48 62 64 16 14 14 12 16 22 17 14 26 22 18 8 14 16 12 8 4 5 7 5 8 11 11 10 7 25 2 21 50 62 71 71 67 52 45 38 32 31 34 50 43 36 36 29
31 32 44 42 39 42 47 62 71 33 14 14 12 8 14 5 14 36 36 30 20 26 14 9 4 3 10 7 8 15 9 14 7 6 9 7 26 33 41 64 77 75 67 57 47 40 33 34 40 43 38 36 29 24
32 36 34 36 46 50 68 65 42 14 15 11 14 27 28 18 18 12 19 28 23 13 6 5 8 17 3 8 8 9 11 8 18 10 18 38 58 79 93 89 84 76 74 55 51 39 40 37 38 41 37 32 30 23
41 43 45 56 66 79 57 20 21 16 14 24 11 19 34 29 17 21 27 33 25 13 10 11 10 8 13 12 17 14 25 38 46 53 68 87 95 97 86 81 77 67 59 52 44 35 33 37 36 32 32 36 28 22
52 52 56 79 93 51 15 19 13 11 23 13 22 31 33 33 43 44 47 44 40 38 12 10 12 10 24 33 42 67 69 60 62 78 75 78 73 73 75 59 53 49 39 32 25 28 31 29 26 30 35 37 32 32
44 62 85 91 62 14 11 10 17 9 9 7 13 17 17 21 32 36 32 34 37 17 17 11 19 51 57 76 82 84 85 78 68 72 77 76 57 40 36 35 28 23 27 26 29 28 25 19 28 32 33 35 38 47
95 98 82 42 25 11 8 13 13 8 6 11 11 14 14 21 28 35 40 41 29 17 9 45 68 80 87 86 85 92 109 94 80 73 84 89 66 58 56 35 24 23 27 24 21 20 21 29 31 31 36 42 49 58
84 81 43 22 8 5 5 11 6 4 7 9 11 10 12 8 10 10 11 20 15 31 49 63 67 66 69 82 93 106 125 120 102 81 81 83 72 63 55 43 36 29 27 25 25 22 26 30 33 37 44 53 58 55
73 52 17 8 6 8 5 11 7 6 3 6 4 4 6 9 7 5 9 14 20 39 42 45 50 64 82 93 96 93 87 83 79 70 56 53 48 42 35 36 29 26 28 28 24 28 42 44 48 55 56 56 55 55
44 11 11 12 8 7 8 7 8 6 6 4 2 7 7 9 6 7 7 10 20 22 29 46 69 82 82 72 69 70 70 57 14 7 8 27 44 40 34 36 34 33 33 35 40 47 47 53 50 51 53 59 61 57
9 9 9 4 5 5 6 6 8 4 6 6 5 7 7 6 4 6 6 10 19 32 52 75 77 57 56 62 60 60 59 50 34 36 36 54 63 52 43 40 42 35 41 52 56 58 54 50 48 55 61 61 55 50
4 8 10 13 9 9 8 6 11 13 7 6 9 8 5 3 5 9 6 12 29 57 68 69 72 68 47 38 44 42 36 37 44 53 47 57 64 69 69 57 47 40 42 50 63 60 55 59 62 62 54 47 50 50
5 7 8 11 7 6 6 12 6 2 4 5 5 4 3 6 7 7 11 37 70 86 87 70 43 31 37 41 34 36 38 41 46 51 54 57 63 61 57 65 60 53 50 52 48 53 60 59 56 54 53 49 47 45
2 6 8 11 11 12 4 3 2 5 6 7 2 4 5 5 6 9 48 83 86 79 60 24 26 30 36 35 37 45 51 53 53 52 48 45 44 50 57 59 55 51 47 44 51 49 49 52 54 55 55 51 45 44
5 6 8 3 7 10 11 11 8 8 6 6 3 5 8 12 45 76 80 72 60 45 24 24 21 27 36 32 32 37 44 44 59 70 72 64 60 61 56 50 50 47 47 46 44 41 45 54 56 57 50 45 45 41
4 13 7 6 6 8 12 18 12 16 16 21 27 35 50 64 66 59 49 34 34 25 26 22 19 33 40 39 38 42 42 43 47 58 66 65 61 53 51 53 53 49 45 45 47 46 52 56 52 44 40 37 34 32
3 8 7 9 7 9 15 20 27 33 39 46 48 46 48 45 51 15 24 29 26 20 23 19 20 31 37 40 38 42 44 44 44 46 52 56 56 52 47 45 45 44 39 41 45 50 56 51 43 36 28 21 22 24
7 11 7 5 9 19 23 28 24 23 24 21 15 12 9 8 10 13 18 22 19 15 14 13 19 29 33 29 35 42 41 37 35 36 39 39 38 34 31 30 33 34 40 46 55 50 43 37 28 21 17 20 20 21
8 10 7 6 6 6 5 5 5 7 8 6 6 7 8 4 7 7 12 14 9 9 10 12 22 18 22 28 36 39 39 38 36 35 37 37 38 40 41 40 43 47 47 46 44 34 29 22 11 16 28 29 22 21
Wind_Direction_850mb
276 285 293 298 299 296 302 315 320 326 330 332 337 344 346 353 356 350 338 333 335 284 288 270 250 222 235 221 176 321 344 296 351 57 148 261 216 268 305 256 197 195 209 219 125 263 240 353 27 185 268 326 330 356
273 274 280 287 293 298 293 294 304 313 321 324 328 333 337 342 347 346 340 328 320 288 276 287 283 273 262 257 261 275 256 276 242 92 239 282 293 304 185 272 73 254 191 215 180 213 255 304 307 308 311 314 325 323
269 271 271 276 285 292 291 285 287 298 307 313 319 325 331 334 337 339 336 331 331 306 305 302 316 177 307 264 239 217 229 229 231 274 204 194 241 140 224 239 247 247 172 197 346 234 248 302 304 290 302 317 316 307
264 263 265 268 274 283 285 294 281 287 293 301 312 317 324 329 331 331 332 330 326 306 300 278 292 281 290 276 252 246 259 252 271 292 247 185 190 196 229 246 203 222 149 212 264 293 286 265 310 310 328 332 331 335
260 263 258 260 263 268 276 279 284 279 285 292 299 307 316 321 325 326 321 325 331 340 284 287 304 171 350 336 297 255 254 253 261 229 208 219 216 176 226 73 240 197 203 176 226 236 217 281 313 318 322 318 344 340
256 257 259 255 256 259 261 266 270 274 275 282 290 298 306 313 321 329 300 247 203 7 323 314 301 299 357 18 12 333 287 248 224 213 229 230 225 203 205 224 240 231 239 246 245 272 266 291 291 296 308 291 305 320
251 252 253 258 250 252 254 257 261 261 268 271 280 287 295 299 306 292 275 279 238 288 306 301 304 295 339 350 335 272 288 249 223 223 223 233 235 211 213 230 234 217 241 236 248 276 288 291 283 301 299 292 297 299
249 250 249 251 254 248 248 251 253 258 259 260 268 277 283 290 296 291 265 242 248 245 257 272 276 316 354 335 335 334 278 245 230 236 247 219 215 211 246 248 239 247 244 249 264 271 277 288 284 283 302 307 296 297
249 248 247 250 249 248 244 246 254 251 252 250 254 265 278 273 234 186 191 215 205 218 249 206 261 277 337 321 296 300 283 310 278 240 247 199 211 228 226 217 233 244 237 239 250 263 266 268 275 288 292 298 294 295
248 247 246 248 249 245 248 244 245 244 239 241 240 234 238 199 180 244 232 197 205 216 229 236 221 259 278 313 295 295 265 247 279 248 271 197 250 267 283 311 301 287 267 250 240 250 265 274 276 281 283 293 295 298
249 244 246 245 252 246 242 244 237 225 227 221 195 189 184 172 197 221 212 206 192 245 221 234 217 240 240 187 229 232 281 272 287 271 177 251 285 295 346 351 338 314 304 238 231 240 256 270 282 291 297 300 301 297
248 240 241 240 249 240 229 233 224 222 215 188 152 149 169 194 198 198 219 200 201 230 210 202 228 222 251 230 203 231 233 306 251 308 272 244 258 334 347 348 348 341 304 268 260 267 257 274 291 297 299 297 291 286
249 236 232 233 221 218 234 247 219 218 191 143 144 144 170 173 188 203 198 218 217 207 208 205 220 226 223 232 242 206 242 237 303 252 248 222 252 334 348 351 339 338 341 323 302 285 288 289 296 305 306 292 283 273
247 230 224 231 225 216 223 232 212 185 155 149 158 170 208 190 232 200 192 191 209 211 183 200 238 221 207 191 227 224 241 262 258 248 241 218 300 321 329 329 329 325 322 327 316 305 288 288 292 298 298 286 263 262
237 223 217 231 218 214 221 214 194 172 156 160 177 211 213 228 230 234 231 232 229 232 288 299 263 226 216 258 209 255 250 241 237 233 220 223 250 334 312 325 317 310 306 304 314 303 283 280 283 286 295 260 244 250
223 215 228 221 199 200 188 182 175 171 177 174 218 239 228 263 248 239 237 243 239 268 272 231 251 238 236 211 200 216 241 227 236 219 228 281 313 317 301 302 302 301 300 295 298 294 279 269 281 288 284 246 226 221
191 228 222 200 183 177 176 165 172 192 204 209 230 228 234 264 255 250 226 239 228 206 206 202 224 222 198 233 229 214 222 224 230 189 264 291 298 293 288 283 286 284 288 288 296 277 269 273 276 279 259 229 212 211
217 214 207 185 170 163 158 149 163 199 228 229 227 243 233 237 237 243 247 248 227 211 208 222 267 232 234 234 236 244 257 279 280 275 276 278 278 281 274 269 261 269 275 280 276 268 260 270 278 262 227 221 198 183
211 202 195 180 166 149 143 168 170 217 226 233 242 256 259 260 259 261 262 260 254 244 257 233 237 228 234 249 261 268 274 278 282 286 288 288 288 289 290 284 273 274 269 260 253 259 270 259 258 232 216 201 187 168
194 185 175 162 153 123 121 162 183 237 231 235 239 245 242 244 273 271 268 258 244 214 204 223 240 251 262 267 272 278 284 286 287 290 286 286 292 292 297 303 288 273 268 259 258 254 252 239 217 214 209 189 173 157
157 160 150 143 115 106 143 165 180 219 251 246 265 252 261 261 263 264 262 253 224 221 239 248 257 263 265 270 277 279 278 277 271 268 271 279 279 278 283 279 280 271 239 236 226 230 205 210 205 193 185 173 161 151
150 151 133 113 92 101 131 183 177 186 238 261 273 229 261 268 252 233 219 196 229 241 241 255 266 277 283 281 283 282 285 289 284 276 271 268 263 257 254 254 259 247 228 201 193 196 202 196 177 159 153 142 141 140
147 146 91 89 128 183 171 176 188 216 209 252 256 267 245 250 241 250 253 230 243 259 276 288 294 296 295 296 298 300 300 295 289 287 270 257 246 241 234 225 221 205 188 170 170 172 156 146 139 133 130 133 135 138
133 113 172 180 166 163 159 190 216 237 240 261 230 265 247 234 249 241 249 260 249 296 306 304 310 315 316 312 312 330 343 355 29 129 161 175 175 179 188 181 181 160 154 153 149 147 134 128 131 135 136 137 135 133
151 173 166 134 159 141 210 195 193 194 240 224 233 265 258 219 244 252 240 267 279 315 320 322 317 307 300 316 338 358 34 44 84 102 125 152 149 144 145 151 141 142 156 143 139 137 133 135 140 140 140 140 141 141
134 171 162 168 154 178 216 197 203 206 203 238 235 254 252 248 258 247 242 285 315 321 322 321 318 326 344 359 354 9 36 61 94 103 119 138 144 140 138 139 143 144 145 141 139 133 132 137 139 141 142 143 144 144
147 200 189 198 194 208 261 259 224 140 244 240 252 279 296 256 256 254 302 316 319 322 324 329 333 339 358 26 54 68 75 87 93 107 125 137 142 141 141 140 139 135 137 142 140 136 136 140 140 141 140 141 139 136
263 184 169 172 207 225 232 306 63 235 238 239 222 256 252 236 268 325 311 311 314 319 332 30 57 48 45 48 79 92 95 96 100 105 113 117 127 134 136 131 128 128 135 139 139 140 142 143 142 142 139 136 135 133
217 193 178 217 231 223 211 196 226 241 224 215 190 262 265 275 297 301 308 311 319 336 44 88 88 65 61 73 86 102 98 109 115 111 109 115 123 129 127 124 126 131 134 137 135 134 140 143 142 141 139 139 139 140
239 180 187 227 224 216 219 212 239 271 276 278 283 285 289 291 302 311 313 347 18 58 94 98 74 58 57 72 82 92 96 94 97 106 114 120 122 123 126 123 124 128 131 132 136 134 140 142 141 142 146 150 156 161
259 171 200 224 252 276 274 289 296 296 291 288 289 280 283 303 320 4 8 18 45 98 110 86 66 71 71 85 98 107 106 106 107 107 110 117 122 125 126 128 128 126 125 130 136 139 145 146 149 152 152 155 172 179
203 214 222 230 271 293 289 286 281 271 277 266 269 267 294 299 293 347 14 18 45 83 70 67 80 69 66 79 104 108 108 110 113 116 120 125 131 136 139 142 143 141 141 139 146 146 150 154 160 165 162 170 163 154
228 273 295 295 295 298 292 267 272 281 268 280 276 241 214 246 268 353 19 25 29 28 60 97 113 88 66 99 116 110 103 102 107 114 113 118 120 124 127 131 135 139 142 144 151 161 171 176 189 160 155 146 149 154